Weather History for Manchester, NH

Change the Weather History Date:

Tuesday, November 20, 2012

  Actual Average Record
Temperature  
Mean Temperature 36 °F -  
Max Temperature 48 °F 46 °F 73 °F (1953)
Min Temperature 25 °F 26 °F 8 °F (1986)
Degree Days  
Heating Degree Days 28    
Moisture  
Dew Point 24 °F    
Average Humidity 66    
Maximum Humidity 88    
Minimum Humidity 37    
Precipitation  
Precipitation 0.00 in - - ()
Sea Level Pressure  
Sea Level Pressure 30.23 in    
Wind  
Wind Speed 1 mph (North)    
Max Wind Speed 7 mph    
Max Gust Speed -    
Visibility 10 miles    
Events      
Averages and records for this station are not official NWS values.
T = Trace of Precipitation, MM = Missing Value Source: NWS Daily Summary

Daily Weather History Graph

Daily Weather History Graph

Search for Another Location

Airport:

Trip Planner

Search our weather history database for the weather conditions in past years. The results will help you decide how hot, cold, wet, or windy it might be!

Date:

Astronomy

Nov. 20, 2012 Rise Set
Actual Time 6:44 AM EST 4:17 PM EST
Civil Twilight 6:13 AM EST 4:48 PM EST
Nautical Twilight 5:39 AM EST 5:23 PM EST
Astronomical Twilight 5:05 AM EST 5:57 PM EST
Moon 12:12 PM EST (11/20) 11:52 PM EST (11/20)
Length of Visible Light 10h 35m
Length of Day
9h 33m
Waxing Crescent, 51% of the Moon is Illuminated
Nov 20
Waxing Crescent
Nov 28
Full
Dec 6
Last Quarter
Dec 13
New
Dec 20
First Quarter

Hourly Weather History & Observations

Time (EST) Temp. Windchill Dew Point Humidity Pressure Visibility Wind Dir Wind Speed Gust Speed Precip Events Conditions
12:53 AM 28.0 °F - 25.0 °F 88% 30.30 in 10.0 mi Calm Calm - N/A   Clear
1:53 AM 28.0 °F - 25.0 °F 88% 30.30 in 10.0 mi Calm Calm - N/A   Clear
2:53 AM 27.0 °F - 21.9 °F 81% 30.28 in 10.0 mi Calm Calm - N/A   Clear
3:53 AM 25.0 °F - 21.0 °F 85% 30.27 in 10.0 mi Calm Calm - N/A   Clear
4:53 AM 25.0 °F 20.7 °F 21.9 °F 88% 30.27 in 10.0 mi North 3.5 mph - N/A   Clear
5:53 AM 26.1 °F 21.9 °F 23.0 °F 88% 30.26 in 10.0 mi North 3.5 mph - N/A   Clear
6:53 AM 26.1 °F 21.9 °F 21.9 °F 84% 30.26 in 9.0 mi North 3.5 mph - N/A   Clear
7:53 AM 28.9 °F 21.9 °F 24.1 °F 82% 30.27 in 10.0 mi North 6.9 mph - N/A   Clear
8:53 AM 33.1 °F 27.7 °F 25.0 °F 72% 30.26 in 10.0 mi NNW 5.8 mph - N/A   Clear
9:53 AM 37.9 °F 33.5 °F 24.1 °F 57% 30.25 in 10.0 mi North 5.8 mph - N/A   Clear
10:53 AM 41.0 °F - 26.1 °F 55% 30.24 in 10.0 mi Calm Calm - N/A   Clear
11:53 AM 45.0 °F - 26.1 °F 48% 30.21 in 10.0 mi Calm Calm - N/A   Clear
12:53 PM 46.0 °F - 26.1 °F 46% 30.20 in 10.0 mi Calm Calm - N/A   Clear
1:53 PM 48.9 °F - 25.0 °F 39% 30.18 in 10.0 mi Variable 4.6 mph - N/A   Clear
2:53 PM 48.9 °F - 24.1 °F 38% 30.18 in 10.0 mi North 3.5 mph - N/A   Clear
3:53 PM 46.0 °F - 21.0 °F 37% 30.19 in 10.0 mi Calm Calm - N/A   Clear
4:53 PM 42.1 °F - 23.0 °F 47% 30.20 in 10.0 mi Calm Calm - N/A   Clear
5:53 PM 37.9 °F - 24.1 °F 57% 30.21 in 10.0 mi Calm Calm - N/A   Clear
6:53 PM 36.0 °F - 24.1 °F 62% 30.21 in 10.0 mi Calm Calm - N/A   Clear
7:53 PM 35.1 °F - 25.0 °F 67% 30.22 in 10.0 mi Calm Calm - N/A   Clear
8:53 PM 35.1 °F - 26.1 °F 70% 30.21 in 10.0 mi Calm Calm - N/A   Clear
9:53 PM 36.0 °F - 26.1 °F 67% 30.21 in 10.0 mi Calm Calm - N/A   Clear
10:53 PM 35.1 °F - 26.1 °F 70% 30.21 in 10.0 mi Calm Calm - N/A   Clear
11:53 PM 35.1 °F - 26.1 °F 70% 30.21 in 10.0 mi Calm Calm - N/A   Clear